TimeEDT,TemperatureF,Dew PointF,Humidity,Sea Level PressureIn,VisibilityMPH,Wind Direction,Wind SpeedMPH,Gust SpeedMPH,PrecipitationIn,Events,Conditions,WindDirDegrees,DateUTC
12:53 AM,42.1,36.0,79,30.02,10.0,WSW,5.8,-,N/A,,Clear,250,2012-10-11 04:53:00
1:53 AM,41.0,35.1,79,30.04,10.0,West,9.2,-,N/A,,Clear,260,2012-10-11 05:53:00
2:53 AM,41.0,33.1,73,30.05,10.0,West,9.2,-,N/A,,Clear,260,2012-10-11 06:53:00
3:53 AM,41.0,30.9,67,30.07,10.0,West,10.4,20.7,N/A,,Clear,260,2012-10-11 07:53:00
4:53 AM,37.9,30.0,73,30.09,10.0,SW,5.8,-,N/A,,Clear,230,2012-10-11 08:53:00
5:53 AM,34.0,28.9,82,30.13,10.0,West,3.5,-,N/A,,Clear,270,2012-10-11 09:53:00
6:53 AM,35.1,28.9,78,30.17,10.0,Calm,Calm,-,N/A,,Clear,0,2012-10-11 10:53:00
7:53 AM,34.0,30.0,85,30.18,10.0,SSW,4.6,-,N/A,,Partly Cloudy,210,2012-10-11 11:53:00
8:53 AM,41.0,32.0,70,30.21,10.0,SW,8.1,-,N/A,,Clear,230,2012-10-11 12:53:00
9:53 AM,44.1,30.0,58,30.22,10.0,West,10.4,-,N/A,,Mostly Cloudy,260,2012-10-11 13:53:00
10:53 AM,46.0,30.9,56,30.22,10.0,West,12.7,-,N/A,,Mostly Cloudy,260,2012-10-11 14:53:00
11:53 AM,48.9,28.0,44,30.20,10.0,WSW,10.4,19.6,N/A,,Partly Cloudy,250,2012-10-11 15:53:00
12:53 PM,52.0,30.0,43,30.18,10.0,WSW,10.4,-,N/A,,Clear,250,2012-10-11 16:53:00
1:53 PM,54.0,30.0,40,30.16,10.0,West,10.4,21.9,N/A,,Scattered Clouds,270,2012-10-11 17:53:00
2:53 PM,54.0,30.0,40,30.13,10.0,West,10.4,18.4,N/A,,Clear,260,2012-10-11 18:53:00
3:53 PM,55.9,30.9,39,30.10,10.0,West,10.4,-,N/A,,Clear,270,2012-10-11 19:53:00
4:53 PM,55.9,30.0,37,30.08,10.0,SSW,8.1,-,N/A,,Clear,210,2012-10-11 20:53:00
6:53 PM,48.9,32.0,52,30.08,10.0,SSW,4.6,-,N/A,,Clear,210,2012-10-11 22:53:00
7:53 PM,44.1,33.1,65,30.09,10.0,West,3.5,-,N/A,,Clear,280,2012-10-11 23:53:00
9:53 PM,39.9,32.0,73,30.10,10.0,Calm,Calm,-,N/A,,Clear,0,2012-10-12 01:53:00
10:53 PM,37.9,32.0,79,30.10,10.0,Calm,Calm,-,N/A,,Clear,0,2012-10-12 02:53:00